CW8593 Gava ES current weather conditions

sailwx.info

Wind from 207 at 0 knots gusting 2

Air temperature 26.1° C
Dewpoint 19.2° C

Last reported at 2015-Aug-02 07:51 UTC.
Time now 2015-Aug-02 08:17 UTC

Location: N 41°18' E 001°60'.
View on Google Maps.

See reports from other nearby stations

  
Tides and Currents Weather Stations Pressure Air Temp Water Temp Dewpoint Dewpoint Depression Visibility Wind Speed Wind Dir Waves Ship Positions
date/time (UTC)wind fromknots sea level pressurealtimeterstation pressurevisibilityair tempwater tempwave heightnotes
2015-Aug-02 07:51 207 0 gusting 2 26.1
2015-Aug-02 07:41 279 0 gusting 2 25.6
2015-Aug-02 07:36 279 25.6
2015-Aug-02 07:31 277 0 gusting 2 25.6
2015-Aug-02 07:26 277 0 gusting 2 25.0
2015-Aug-02 07:16 277 0 gusting 2 25.0
2015-Aug-02 07:11 277 0 gusting 1 25.0
2015-Aug-02 07:06 277 24.4
2015-Aug-02 07:01 277 24.4
2015-Aug-02 06:41 279 0 gusting 2 23.9
2015-Aug-02 06:36 280 0 gusting 2 23.9
2015-Aug-02 06:26 280 23.9
2015-Aug-02 06:21 280 23.3
2015-Aug-02 06:16 280 23.3
2015-Aug-02 06:06 280 22.8
2015-Aug-02 06:01 280 22.2
2015-Aug-02 05:56 280 21.7
2015-Aug-02 05:51 280 21.7
2015-Aug-02 05:46 280 21.1
2015-Aug-02 05:41 280 21.1
2015-Aug-02 05:36 280 21.1
2015-Aug-02 05:31 280 21.1
2015-Aug-02 05:21 280 0 gusting 1 20.6
2015-Aug-02 05:16 280 1 gusting 2 20.6
2015-Aug-02 05:11 280 1 gusting 2 20.6
2015-Aug-02 05:06 279 0 gusting 2 20.6
2015-Aug-02 05:01 279 20.6
2015-Aug-02 04:51 279 20.6
2015-Aug-02 04:41 279 20.0
2015-Aug-02 04:36 279 20.0
2015-Aug-02 04:26 279 20.6
2015-Aug-02 04:21 279 20.6
2015-Aug-02 04:16 279 20.6
2015-Aug-02 04:11 279 20.6
2015-Aug-02 04:06 279 20.6
2015-Aug-02 04:01 279 1 gusting 2 20.6
2015-Aug-02 03:56 279 0 gusting 1 20.6
2015-Aug-02 03:51 279 20.6
2015-Aug-02 03:16 105 0 gusting 2 20.6
2015-Aug-02 03:11 105 0 gusting 1 20.6
2015-Aug-02 03:06 105 1 gusting 2 20.6
2015-Aug-02 03:01 105 0 gusting 2 21.1
2015-Aug-02 02:51 104 0 gusting 2 21.1
2015-Aug-02 02:31 104 0 gusting 2 21.1
2015-Aug-02 02:21 105 1 gusting 2 20.6
2015-Aug-02 02:16 105 20.6
2015-Aug-02 02:11 105 20.6
2015-Aug-02 02:06 105 0 gusting 2 20.6
2015-Aug-02 01:56 105 20.6
2015-Aug-02 01:51 105 20.6
2015-Aug-02 01:41 105 20.6
2015-Aug-02 01:36 105 20.6
2015-Aug-02 01:31 105 20.6
2015-Aug-02 01:26 105 20.6
2015-Aug-02 01:21 105 0 gusting 2 20.6
2015-Aug-02 01:16 105 1 gusting 2 20.6
2015-Aug-02 01:11 103 1 gusting 2 21.1
2015-Aug-02 01:06 101 21.1
2015-Aug-02 01:01 101 21.1
2015-Aug-02 00:56 101 21.1
2015-Aug-02 00:51 101 21.1
2015-Aug-02 00:46 101 21.1
2015-Aug-02 00:41 101 21.1
2015-Aug-02 00:36 101 21.1
2015-Aug-02 00:31 101 21.7
2015-Aug-02 00:26 101 21.7
2015-Aug-02 00:16 101 21.7
2015-Aug-02 00:11 101 21.7
2015-Aug-02 00:06 101 21.7
2015-Aug-02 00:01 101 21.7
2015-Aug-01 23:56 101 22.2
2015-Aug-01 23:51 101 22.2
2015-Aug-01 23:41 101 22.2
2015-Aug-01 23:31 101 1 gusting 2 22.2
2015-Aug-01 23:21 103 0 gusting 2 22.2
2015-Aug-01 23:16 103 22.2
2015-Aug-01 23:11 103 22.2
2015-Aug-01 23:06 103 22.2
2015-Aug-01 22:46 103 22.2
2015-Aug-01 22:41 103 22.2
2015-Aug-01 22:36 103 22.2
2015-Aug-01 22:31 103 22.2
2015-Aug-01 22:21 103 22.2
2015-Aug-01 22:16 103 22.2
2015-Aug-01 22:06 103 22.2
2015-Aug-01 22:01 103 22.8
2015-Aug-01 21:31 103 0 gusting 2 23.3
2015-Aug-01 21:06 102 0 gusting 2 23.3
2015-Aug-01 21:01 102 23.3
2015-Aug-01 20:51 102 0 gusting 2 23.9
2015-Aug-01 20:46 102 0 gusting 2 23.9
2015-Aug-01 20:31 111 1 gusting 4 23.9
2015-Aug-01 20:26 107 1 gusting 2 23.9
2015-Aug-01 20:21 108 1 gusting 6 23.9
2015-Aug-01 20:16 092 0 gusting 5 23.9
2015-Aug-01 20:11 092 1 gusting 6 23.9
2015-Aug-01 20:06 105 2 gusting 4 23.9
2015-Aug-01 19:56 081 2 gusting 5 23.9
2015-Aug-01 19:51 102 2 gusting 4 23.9
2015-Aug-01 19:46 101 1 gusting 5 23.9
2015-Aug-01 19:41 101 2 gusting 5 23.9
2015-Aug-01 19:36 095 2 gusting 6 23.9
2015-Aug-01 19:11 138 0 gusting 2 23.9
2015-Aug-01 19:06 138 1 gusting 5 23.9
2015-Aug-01 19:01 126 1 gusting 2 23.9
2015-Aug-01 18:56 121 1 gusting 4 23.9
2015-Aug-01 18:46 155 2 gusting 5 23.9
2015-Aug-01 18:41 161 2 gusting 6 23.9
2015-Aug-01 18:36 147 2 gusting 4 23.9
2015-Aug-01 18:31 128 2 gusting 5 23.9
2015-Aug-01 18:26 115 1 gusting 6 23.9
2015-Aug-01 18:16 114 2 gusting 5 23.9
2015-Aug-01 18:11 136 2 gusting 6 23.9
2015-Aug-01 18:06 139 2 gusting 4 24.4
2015-Aug-01 18:01 136 2 gusting 4 24.4
2015-Aug-01 17:56 114 1 gusting 4 24.4
2015-Aug-01 17:41 141 2 gusting 6 24.4
2015-Aug-01 17:36 161 1 gusting 2 24.4
2015-Aug-01 17:31 162 2 gusting 6 24.4
2015-Aug-01 17:26 177 0 gusting 5 24.4
2015-Aug-01 17:21 183 2 gusting 8 24.4
2015-Aug-01 17:16 135 2 gusting 6 24.4
2015-Aug-01 17:11 129 4 gusting 8 24.4
2015-Aug-01 17:01 175 4 gusting 7 24.4
2015-Aug-01 16:56 194 3 gusting 6 24.4
2015-Aug-01 16:46 164 5 gusting 8 24.4
2015-Aug-01 16:41 135 4 gusting 6 24.4
2015-Aug-01 16:36 193 5 gusting 7 24.4
2015-Aug-01 16:21 144 2 gusting 6 24.4
2015-Aug-01 16:16 140 4 gusting 7 25.0
2015-Aug-01 16:06 175 4 gusting 8 25.0
2015-Aug-01 16:01 171 6 gusting 10 25.0
2015-Aug-01 15:51 155 5 gusting 10 25.0
2015-Aug-01 15:41 159 6 gusting 10 25.0
2015-Aug-01 15:36 208 3 gusting 10 25.0
2015-Aug-01 15:31 124 2 gusting 10 24.4
2015-Aug-01 15:26 127 6 gusting 11 25.0
2015-Aug-01 15:16 154 6 gusting 10 24.4
2015-Aug-01 15:06 102 4 gusting 10 24.4
2015-Aug-01 15:01 124 4 gusting 10 25.0
2015-Aug-01 14:56 128 2 gusting 10 24.4
2015-Aug-01 14:51 117 6 gusting 11 25.0
2015-Aug-01 14:36 162 4 gusting 7 25.0
2015-Aug-01 14:31 130 5 gusting 10 25.0
2015-Aug-01 14:16 122 4 gusting 11 24.4
2015-Aug-01 14:11 120 5 gusting 10 24.4
2015-Aug-01 14:01 150 2 gusting 6 25.0
2015-Aug-01 13:56 101 1 gusting 7 25.0
2015-Aug-01 13:51 094 3 gusting 8 24.4
2015-Aug-01 13:41 130 4 gusting 8 24.4
2015-Aug-01 13:36 174 2 gusting 10 24.4
2015-Aug-01 13:31 132 4 gusting 6 24.4
2015-Aug-01 13:21 149 6 gusting 11 23.9
2015-Aug-01 13:06 144 5 gusting 8 25.0
2015-Aug-01 12:56 133 6 gusting 11 24.4
2015-Aug-01 12:46 130 4 gusting 10 24.4
2015-Aug-01 12:41 137 6 gusting 12 24.4
2015-Aug-01 12:36 151 5 gusting 10 24.4
2015-Aug-01 12:31 087 6 gusting 13 24.4
2015-Aug-01 12:21 123 4 gusting 8 25.0
2015-Aug-01 12:16 085 3 gusting 7 25.0
2015-Aug-01 12:01 052 1 gusting 7 24.4
2015-Aug-01 11:56 072 5 gusting 10 24.4
2015-Aug-01 11:46 091 4 gusting 11 23.9
2015-Aug-01 11:36 068 3 gusting 7 24.4
2015-Aug-01 11:31 099 5 gusting 10 23.9
2015-Aug-01 11:26 034 2 gusting 11 23.9
2015-Aug-01 11:06 074 5 gusting 10 24.4
2015-Aug-01 10:46 061 2 gusting 6 25.6
2015-Aug-01 10:41 049 1 gusting 7 25.0
2015-Aug-01 10:36 061 1 gusting 6 24.4
2015-Aug-01 10:31 054 3 gusting 7 24.4
2015-Aug-01 10:26 050 2 gusting 7 24.4
2015-Aug-01 10:11 053 4 gusting 7 23.9
2015-Aug-01 10:06 051 4 gusting 6 23.9
2015-Aug-01 10:01 354 2 gusting 6 23.9
2015-Aug-01 09:56 004 2 gusting 7 23.3
2015-Aug-01 09:51 002 2 gusting 6 23.3
2015-Aug-01 09:46 021 4 gusting 6 22.8
2015-Aug-01 09:41 313 1 gusting 6 22.8
2015-Aug-01 09:36 300 5 gusting 8 23.3
2015-Aug-01 09:26 300 4 gusting 6 23.3
2015-Aug-01 09:21 330 3 gusting 6 23.9
2015-Aug-01 09:16 355 1 gusting 6 23.9
2015-Aug-01 09:11 349 3 gusting 6 23.9
2015-Aug-01 09:06 097 3 gusting 7 24.4
2015-Aug-01 09:01 016 2 gusting 6 23.9
2015-Aug-01 08:56 039 5 gusting 8 23.9
2015-Aug-01 08:51 044 5 gusting 8 23.9
2015-Aug-01 08:46 015 5 gusting 10 23.9
2015-Aug-01 08:31 014 6 gusting 8 23.3
2015-Aug-01 08:21 353 4 gusting 10 23.3
2015-Aug-01 08:16 354 4 gusting 6 23.3
2015-Aug-01 08:06 351 3 gusting 6 22.8
2015-Aug-01 08:01 334 4 gusting 7 22.8
2015-Aug-01 07:56 357 6 gusting 8 22.8
2015-Aug-01 07:51 347 4 gusting 6 22.8
2015-Aug-01 07:46 353 5 gusting 6 22.8
2015-Aug-01 07:36 331 1 gusting 6 22.8
2015-Aug-01 07:31 330 2 gusting 6 22.2
2015-Aug-01 07:26 341 4 gusting 7 22.2
2015-Aug-01 07:21 004 3 gusting 6 22.2
2015-Aug-01 07:16 331 2 gusting 7 21.7
2015-Aug-01 07:06 325 3 gusting 6 21.7
2015-Aug-01 07:01 336 4 gusting 7 21.7
2015-Aug-01 06:46 294 1 gusting 6 21.1
2015-Aug-01 06:41 284 2 gusting 6 20.6
2015-Aug-01 06:36 286 3 gusting 5 20.6
2015-Aug-01 06:21 294 2 gusting 6 20.0
2015-Aug-01 06:16 301 2 gusting 6 20.0
2015-Aug-01 06:01 286 3 gusting 5 19.4
2015-Aug-01 05:51 316 2 gusting 5 19.4
2015-Aug-01 05:41 310 1 gusting 7 19.4
2015-Aug-01 05:31 301 3 gusting 6 18.9
2015-Aug-01 05:26 318 1 gusting 6 18.9
2015-Aug-01 05:06 293 5 gusting 6 18.9
2015-Aug-01 04:56 296 5 gusting 7 18.9
2015-Aug-01 04:51 300 5 gusting 6 18.9
2015-Aug-01 04:46 289 6 gusting 7 18.9
2015-Aug-01 04:36 301 5 gusting 7 18.9
2015-Aug-01 04:26 293 6 gusting 7 18.9
2015-Aug-01 04:21 289 6 gusting 7 18.9
2015-Aug-01 04:16 295 4 gusting 7 18.9
2015-Aug-01 04:01 302 4 gusting 6 18.9
2015-Aug-01 03:56 299 4 gusting 6 18.9
2015-Aug-01 03:41 323 0 gusting 5 18.9
2015-Aug-01 03:36 312 4 gusting 6 18.9
2015-Aug-01 03:26 294 6 gusting 8 18.9
2015-Aug-01 03:21 293 5 gusting 6 18.9
2015-Aug-01 03:16 306 3 gusting 5 18.9
2015-Aug-01 03:06 004 1 gusting 6 18.9
2015-Aug-01 03:01 304 3 gusting 6 18.9
2015-Aug-01 02:46 341 2 gusting 2 18.9
2015-Aug-01 02:41 347 1 gusting 4 18.9
2015-Aug-01 02:36 355 1 gusting 2 18.9
2015-Aug-01 02:31 015 0 gusting 2 18.9
2015-Aug-01 02:26 040 0 gusting 2 19.4
2015-Aug-01 02:21 043 19.4
2015-Aug-01 02:16 043 0 gusting 2 19.4
2015-Aug-01 02:11 043 19.4
2015-Aug-01 02:01 043 19.4
2015-Aug-01 01:56 043 19.4
2015-Aug-01 01:51 043 2 gusting 6 19.4
2015-Aug-01 01:36 051 6 gusting 10 18.9
2015-Aug-01 01:31 022 4 gusting 8 18.9
2015-Aug-01 01:26 003 2 gusting 4 18.9
2015-Aug-01 01:16 18.9
2015-Aug-01 01:11 329 2 gusting 4 18.9
2015-Aug-01 01:06 299 0 gusting 4 18.9
2015-Aug-01 01:01 300 3 gusting 6 18.9
2015-Aug-01 00:51 190 1 gusting 6 19.4
2015-Aug-01 00:41 074 5 gusting 10 18.9
2015-Aug-01 00:36 214 2 gusting 2 18.9
2015-Aug-01 00:31 315 0 gusting 4 18.9
2015-Aug-01 00:26 317 2 gusting 5 18.9
2015-Aug-01 00:16 355 6 gusting 13 18.9
2015-Aug-01 00:06 344 5 gusting 12 19.4
2015-Jul-31 23:46 294 6 gusting 12 21.7
2015-Jul-31 23:41 297 5 gusting 8 22.2
2015-Jul-31 23:36 328 2 gusting 2 22.2
2015-Jul-31 23:31 335 2 gusting 4 22.8
2015-Jul-31 23:26 023 0 gusting 4 22.8
2015-Jul-31 23:16 053 1 gusting 7 22.8
2015-Jul-31 23:11 051 3 gusting 7 22.2
2015-Jul-31 23:06 058 3 gusting 6 22.2
2015-Jul-31 22:56 318 22.2
2015-Jul-31 22:36 339 2 gusting 6 22.2
2015-Jul-31 22:31 053 1 gusting 4 22.2
2015-Jul-31 22:26 053 2 gusting 6 22.2
2015-Jul-31 22:21 042 2 gusting 6 22.2
2015-Jul-31 22:11 315 21.7
2015-Jul-31 22:06 315 0 gusting 2 21.7
2015-Jul-31 21:56 315 2 gusting 5 21.7
2015-Jul-31 21:51 300 4 gusting 6 21.7
2015-Jul-31 21:46 294 1 gusting 2 21.7
2015-Jul-31 21:41 294 21.7
2015-Jul-31 21:31 293 4 gusting 6 21.7
2015-Jul-31 21:26 313 2 gusting 5 21.7
2015-Jul-31 21:21 345 2 gusting 4 21.7
2015-Jul-31 21:11 348 0 gusting 5 21.7
2015-Jul-31 21:06 349 0 gusting 4 21.7
2015-Jul-31 21:01 355 1 gusting 4 21.7
2015-Jul-31 20:56 004 1 gusting 4 21.7
2015-Jul-31 20:51 026 2 gusting 4 21.7
2015-Jul-31 20:46 030 0 gusting 6 22.2
2015-Jul-31 20:41 041 3 gusting 7 22.2
2015-Jul-31 20:36 073 1 gusting 6 22.2
2015-Jul-31 20:26 022 0 gusting 5 21.7
2015-Jul-31 20:21 032 2 gusting 5 21.7
2015-Jul-31 20:11 038 1 gusting 5 21.7
2015-Jul-31 20:01 029 1 gusting 4 21.7
2015-Jul-31 19:56 323 0 gusting 2 21.7
2015-Jul-31 19:46 292 2 gusting 6 21.7
2015-Jul-31 19:41 333 3 gusting 10 21.7
2015-Jul-31 19:36 302 6 gusting 10 21.7
2015-Jul-31 19:31 024 2 gusting 8 22.2
2015-Jul-31 19:16 025 2 gusting 6 22.2
2015-Jul-31 18:56 196 0 gusting 2 22.2
2015-Jul-31 18:51 196 0 gusting 2 22.2
2015-Jul-31 18:46 196 1 gusting 2 22.8
2015-Jul-31 18:36 196 4 gusting 6 23.9
2015-Jul-31 18:26 063 2 gusting 4 24.4
2015-Jul-31 18:21 169 0 gusting 2 24.4
2015-Jul-31 18:16 167 1 gusting 4 24.4
2015-Jul-31 18:06 150 2 gusting 6 24.4
2015-Jul-31 18:01 031 4 gusting 6 24.4
2015-Jul-31 17:56 113 3 gusting 7 24.4
2015-Jul-31 17:51 088 3 gusting 6 24.4
2015-Jul-31 17:46 070 2 gusting 6 24.4
2015-Jul-31 17:31 077 5 gusting 8 24.4
2015-Jul-31 17:26 024 4 gusting 6 24.4
2015-Jul-31 17:21 094 1 gusting 6 24.4
2015-Jul-31 17:06 101 0 gusting 4 24.4
2015-Jul-31 17:01 099 5 gusting 8 24.4
2015-Jul-31 16:46 123 1 gusting 7 24.4
2015-Jul-31 16:36 085 1 gusting 6 24.4
2015-Jul-31 16:31 125 4 gusting 7 24.4
2015-Jul-31 16:11 123 4 gusting 7 25.0
2015-Jul-31 16:06 085 3 gusting 8 25.0
2015-Jul-31 15:46 117 4 gusting 10 25.0
2015-Jul-31 15:16 093 4 gusting 8 25.0
2015-Jul-31 15:11 126 2 gusting 8 25.0
2015-Jul-31 15:06 105 4 gusting 7 25.0
2015-Jul-31 15:01 071 4 gusting 8 24.4
2015-Jul-31 14:56 096 6 gusting 11 25.0
2015-Jul-31 14:51 109 5 gusting 11 25.0
2015-Jul-31 14:46 131 6 gusting 13 25.0
2015-Jul-31 14:41 055 6 gusting 10 25.0
2015-Jul-31 14:36 101 6 gusting 11 25.0
2015-Jul-31 14:31 108 6 gusting 12 25.0
2015-Jul-31 14:26 119 6 gusting 12 25.0
2015-Jul-31 14:16 158 4 gusting 11 25.0
2015-Jul-31 14:11 122 6 gusting 10 25.0
2015-Jul-31 13:46 134 6 gusting 11 25.6
2015-Jul-31 13:41 088 5 gusting 10 25.6
2015-Jul-31 13:36 142 6 gusting 10 25.0
2015-Jul-31 13:31 090 6 gusting 11 25.6
2015-Jul-31 13:26 138 4 gusting 6 25.6
2015-Jul-31 13:21 144 4 gusting 8 25.6
2015-Jul-31 13:11 151 3 gusting 8 25.6
2015-Jul-31 12:56 330 4 gusting 10 25.6
2015-Jul-31 12:46 077 5 gusting 8 25.6
2015-Jul-31 12:41 076 4 gusting 8 25.0
2015-Jul-31 12:36 097 5 gusting 10 25.6
2015-Jul-31 12:21 110 5 gusting 10 25.6
2015-Jul-31 12:11 139 2 gusting 6 25.0
2015-Jul-31 12:01 082 1 gusting 8 25.0
2015-Jul-31 11:56 125 1 gusting 6 24.4
2015-Jul-31 11:51 117 2 gusting 6 24.4